Regional Weather Roundup
Issued by NWS Huntsville, AL

Home | Current Version | Previous Version | Text Only | Print | Product List | Glossary On
Versions: 1 2 3 4 5 6 7 8 9 10 11 12 13 14 15 16 17 18 19 20 21 22 23 24 25 26 27 28 29 30 31 32 33 34 35 36 37 38 39 40 41 42 43 44 45 46 47 48 49 50
000
ASUS44 KHUN 300710
RWRHUN

WEATHER ROUNDUP FOR THE TENNESSEE VALLEY
NATIONAL WEATHER SERVICE HUNTSVILLE AL
200 AM CDT FRI SEP 30 2016

ALZ001>004-300800-
NORTHWEST ALABAMA

CITY           SKY/WX    TMP DP  RH WIND       PRES   REMARKS
COURTLAND HCN    N/A     50 N/A N/A CALM        N/A
RUSSELLVILLE     N/A     50 N/A N/A MISG        N/A
SHOALS AIRPORT CLEAR     51  48  89 CALM      30.10S
SHOALS TVA RES   N/A     50 N/A N/A MISG        N/A
$$

ALZ005>007-016-300800-
NORTH CENTRAL ALABAMA

CITY           SKY/WX    TMP DP  RH WIND       PRES   REMARKS
CULLMAN AG STN   N/A     52 N/A N/A N3          N/A
DECATUR AP     CLEAR     49  49 100 N3        30.08F
HUNTSVILLE AP  CLEAR     53  49  86 NW3       30.07F
MERIDIANVILLE  CLEAR     50  45  81 CALM      30.08S
REDSTONE ARSN  PTCLDY    52  51  95 NW7       30.07S
VINEMONT AP    FAIR      51  49  93 CALM      30.09F
$$

ALZ008>010-300800-
NORTHEAST ALABAMA

CITY           SKY/WX    TMP DP  RH WIND       PRES   REMARKS
ALBERTVILLE    PTCLDY    54  54 100 NW5       30.05S
FORT PAYNE     CLEAR     48  45  87 CALM      30.05F
SCOTTSBORO AP  CLEAR     52  50  93 CALM      30.07F
SCOTTSBORO HCN   N/A     50 N/A N/A MISG        N/A
VALLEY HEAD      N/A     46 N/A N/A MISG        N/A
$$

TNZ076-096-097-300800-
SOUTHEASTERN MIDDLE TENNESSEE

CITY           SKY/WX    TMP DP  RH WIND       PRES   REMARKS
TULLAHOMA      CLEAR     46  46 100 CALM      30.08S
WINCHESTER     MOCLDY    48  48 100 CALM      30.08S VSB 3/4
$$

...SURROUNDING SITES...

CITY           SKY/WX    TMP DP  RH WIND       PRES   REMARKS
ATLANTA        CLEAR     57  49  74 NW10      30.02S
ANNISTON       CLEAR     55  48  77 CALM      30.06S
BIRMINGHAM     CLEAR     57  50  77 NW7       30.10S
CHATTANOOGA    CLEAR     54  48  80 NW3       30.05F
CORINTH          N/A     52  50  93 CALM      30.09S
DALTON         CLEAR     50  50 100 CALM      30.03F
GADSDEN        CLEAR     50  48  93 W3        30.07S
GOLDEN TRNGL   CLEAR     54  45  71 CALM      30.09F
HALEYVILLE     FAIR      49  47  93 CALM      30.11F
JACKSON TN       N/A    N/A N/A N/A MISG      30.10S
MEMPHIS        PTCLDY    62  55  77 N3        30.11S
NASHVILLE      PTCLDY    50  48  93 S3        30.07F
OXFORD MS      FAIR      52  50  93 CALM      30.13S
ROME           CLEAR     50  46  86 CALM      30.03F
SAVANNAH       MOCLDY    48  48 100 CALM      30.09R
TUPELO         MOCLDY    56  51  84 CALM      30.09F
TUSCALOOSA     PTCLDY    57  50  77 N5        30.09S
$$

...GULF COAST WEATHER...

CITY           SKY/WX    TMP DP  RH WIND       PRES   REMARKS
GULFPORT       CLEAR     62  53  72 N6        30.07S
PASCAGOULA     CLEAR     55  55 100 CALM      30.07S
MOBILE         CLEAR     57  53  86 NW3       30.07S
GULF SHORES    SUNNY     60  53  79 CALM      30.05F
PENSACOLA      CLEAR     60  51  72 N3        30.04F
DESTIN         CLEAR     70  54  56 N9        30.04S
PANAMA CITY    CLEAR     69  52  54 E7        30.02F
APPALACHICOLA  CLEAR     68  60  75 N8        30.01S
$$




USA.gov is the U.S. government's official web portal to all federal, state and local government web resources and services.